TimeCST,TemperatureF,Dew PointF,Humidity,Sea Level PressureIn,VisibilityMPH,Wind Direction,Wind SpeedMPH,Gust SpeedMPH,PrecipitationIn,Events,Conditions,WindDirDegrees,DateUTC
12:15 AM,48.2,41.0,76,30.23,10.0,Calm,Calm,-,N/A,,Clear,0,2012-11-21 06:15:00
12:35 AM,46.4,41.0,81,30.24,9.0,Calm,Calm,-,N/A,,Clear,0,2012-11-21 06:35:00
12:55 AM,46.4,41.0,81,30.24,10.0,Calm,Calm,-,N/A,,Clear,0,2012-11-21 06:55:00
1:15 AM,44.6,41.0,87,30.24,9.0,Calm,Calm,-,N/A,,Clear,0,2012-11-21 07:15:00
1:35 AM,44.6,41.0,87,30.25,9.0,Calm,Calm,-,N/A,,Clear,0,2012-11-21 07:35:00
1:55 AM,44.6,41.0,87,30.25,9.0,Calm,Calm,-,N/A,,Clear,0,2012-11-21 07:55:00
2:15 AM,44.6,41.0,87,30.26,8.0,Calm,Calm,-,N/A,,Clear,0,2012-11-21 08:15:00
2:35 AM,42.8,41.0,93,30.27,7.0,Calm,Calm,-,N/A,,Clear,0,2012-11-21 08:35:00
2:55 AM,41.0,39.2,93,30.26,8.0,Calm,Calm,-,N/A,,Clear,0,2012-11-21 08:55:00
3:15 AM,42.8,39.2,87,30.26,8.0,Calm,Calm,-,N/A,,Clear,0,2012-11-21 09:15:00
3:35 AM,41.0,39.2,93,30.26,7.0,Calm,Calm,-,N/A,,Clear,0,2012-11-21 09:35:00
3:55 AM,42.8,39.2,87,30.25,7.0,Calm,Calm,-,N/A,,Clear,0,2012-11-21 09:55:00
4:15 AM,41.0,39.2,93,30.26,6.0,Calm,Calm,-,N/A,,Clear,0,2012-11-21 10:15:00
4:35 AM,41.0,39.2,93,30.26,5.0,Calm,Calm,-,N/A,,Clear,0,2012-11-21 10:35:00
4:55 AM,42.8,41.0,93,30.26,5.0,Calm,Calm,-,N/A,,Clear,0,2012-11-21 10:55:00
5:15 AM,41.0,39.2,93,30.26,4.0,Calm,Calm,-,N/A,,Clear,0,2012-11-21 11:15:00
5:35 AM,41.0,39.2,93,30.26,4.0,Calm,Calm,-,N/A,,Clear,0,2012-11-21 11:35:00
6:45 AM,42.8,41.0,93,30.27,7.0,Calm,Calm,-,N/A,,Partly Cloudy,0,2012-11-21 12:45:00
7:50 AM,44.6,42.8,93,30.28,10.0,Calm,Calm,-,N/A,,Clear,0,2012-11-21 13:50:00
8:50 AM,51.8,46.4,82,30.29,10.0,SE,5.8,-,N/A,,Clear,140,2012-11-21 14:50:00
9:50 AM,55.4,44.6,67,30.30,10.0,SE,5.8,-,N/A,,Clear,140,2012-11-21 15:50:00
10:48 AM,59.0,42.8,55,30.29,10.0,Calm,Calm,-,N/A,,Clear,0,2012-11-21 16:48:00
11:56 AM,64.4,33.8,32,30.26,10.0,Calm,Calm,-,N/A,,Clear,0,2012-11-21 17:56:00
12:57 PM,66.2,32.0,28,30.23,10.0,Calm,Calm,-,N/A,,Clear,0,2012-11-21 18:57:00
1:55 PM,66.2,32.0,28,30.21,10.0,Calm,Calm,-,N/A,,Clear,0,2012-11-21 19:55:00
2:50 PM,68.0,32.0,26,30.19,10.0,SE,8.1,-,N/A,,Clear,130,2012-11-21 20:50:00
3:47 PM,66.2,32.0,28,30.18,10.0,SSE,6.9,-,N/A,,Clear,150,2012-11-21 21:47:00
4:49 PM,59.0,37.4,45,30.17,10.0,ESE,8.1,-,N/A,,Clear,120,2012-11-21 22:49:00
5:45 PM,57.2,41.0,55,30.18,10.0,ESE,5.8,-,N/A,,Clear,120,2012-11-21 23:45:00
6:45 PM,53.6,39.2,58,30.17,10.0,SE,6.9,-,N/A,,Clear,140,2012-11-22 00:45:00
7:45 PM,55.4,37.4,51,30.17,10.0,SE,8.1,-,N/A,,Clear,140,2012-11-22 01:45:00
8:15 PM,53.6,37.4,54,30.17,10.0,SSE,5.8,-,N/A,,Clear,150,2012-11-22 02:15:00
8:35 PM,53.6,37.4,54,30.17,10.0,SSE,5.8,-,N/A,,Clear,160,2012-11-22 02:35:00
8:45 PM,53.6,35.6,51,30.17,10.0,South,5.8,-,N/A,,Clear,170,2012-11-22 02:45:00
8:55 PM,55.4,35.6,47,30.17,10.0,South,5.8,-,N/A,,Clear,170,2012-11-22 02:55:00
9:15 PM,53.6,35.6,51,30.17,10.0,South,5.8,-,N/A,,Clear,170,2012-11-22 03:15:00
9:35 PM,53.6,35.6,51,30.16,10.0,South,5.8,-,N/A,,Clear,170,2012-11-22 03:35:00
9:55 PM,53.6,35.6,51,30.16,10.0,South,5.8,-,N/A,,Clear,170,2012-11-22 03:55:00
10:15 PM,53.6,35.6,51,30.16,10.0,SSE,5.8,-,N/A,,Clear,160,2012-11-22 04:15:00
10:35 PM,51.8,35.6,54,30.16,10.0,South,5.8,-,N/A,,Clear,170,2012-11-22 04:35:00
10:55 PM,51.8,33.8,50,30.15,10.0,South,6.9,-,N/A,,Clear,170,2012-11-22 04:55:00
11:15 PM,51.8,32.0,47,30.15,10.0,South,5.8,-,N/A,,Clear,170,2012-11-22 05:15:00
11:35 PM,48.2,33.8,58,30.15,10.0,SSE,5.8,-,N/A,,Clear,160,2012-11-22 05:35:00
11:55 PM,50.0,33.8,54,30.15,10.0,South,6.9,-,N/A,,Clear,170,2012-11-22 05:55:00